User: anonymous   Login
Location: Caltech
(34.1382°N, 118.1253°W)
Time: 09:46:20
(UTC-08:00)
Language:

ASTRO E2 - Orbit

View from above orbital plane
View from above orbital plane
View from above satellite
View from above satellite

Ground track
Ground track

The orbit data is extracted from the following two-line orbital elements,

1 28773U 05025A   16040.68811178  .00003615  00000-0  18840-3 0  9999
2 28773  31.3824 253.3264 0004723  77.9862 282.1313 15.14240107582448
Epoch (UTC): 09 February 2016 16:30:52
Eccentricity: 0.0004723
inclination: 31.3824°
perigee height: 520 km
apogee height: 526 km
right ascension of ascending node: 253.3264°
argument of perigee: 77.9862°
revolutions per day: 15.14240107
mean anomaly at epoch: 282.1313°
orbit number at epoch: 58244

The dashed part of the orbit path shows where the satellite is in the earth's shadow,  

DLR